| time (UTC) | temp F | wind direction | speed MPH | gust MPH | rain 1hr in | rain 24hr in | rain mn in | humidity % | barometer mb |
| 20260905004506 | 85 | 300 | 0.0 | 0.0 | 0.00 | 0.01 | 0.01 | 78 | 1010.3 |
| 20260905003005 | 85 | 300 | 0.0 | 4.0 | 0.00 | 0.01 | 0.01 | 77 | 1010.0 |
| 20260905001505 | 85 | 31 | 0.0 | 4.0 | 0.01 | 0.01 | 0.01 | 77 | 1010.3 |
| 20260905000005 | 86 | 15 | 1.0 | 3.0 | 0.01 | 0.01 | 0.01 | 76 | 1010.3 |
| 20260904234534 | 86 | 330 | 0.0 | 4.0 | 0.01 | 0.01 | 0.01 | 74 | 1010.1 |
| 20260904233034 | 87 | 333 | 2.0 | 6.0 | 0.01 | 0.01 | 0.01 | 73 | 1009.9 |
| 20260904231529 | 87 | 312 | 2.0 | 5.0 | 0.00 | 0.00 | 0.00 | 71 | 1009.9 |
| 20260904230031 | 88 | 332 | 4.0 | 9.0 | 0.00 | 0.00 | 0.00 | 70 | 1009.9 |
| 20260904224527 | 88 | 342 | 4.0 | 10.0 | 0.00 | 0.00 | 0.00 | 69 | 1010.0 |
| 20260904223026 | 88 | 5 | 4.0 | 10.0 | 0.00 | 0.00 | 0.00 | 67 | 1010.3 |
| 20260904221523 | 89 | 353 | 3.0 | 10.0 | 0.00 | 0.00 | 0.00 | 66 | 1010.3 |
| 20260904220023 | 89 | 333 | 2.0 | 11.0 | 0.00 | 0.00 | 0.00 | 66 | 1010.2 |
| 20260904214522 | 89 | 337 | 4.0 | 9.0 | 0.00 | 0.00 | 0.00 | 65 | 1010.2 |
| 20260904213022 | 89 | 349 | 2.0 | 8.0 | 0.00 | 0.00 | 0.00 | 64 | 1010.2 |
| 20260904211518 | 89 | 329 | 4.0 | 11.0 | 0.00 | 0.00 | 0.00 | 65 | 1010.2 |
| 20260904210021 | 89 | 16 | 5.0 | 10.0 | 0.00 | 0.00 | 0.00 | 63 | 1010.1 |
| 20260904204516 | 89 | 330 | 8.0 | 13.0 | 0.00 | 0.00 | 0.00 | 63 | 1010.0 |
| 20260904203018 | 88 | 303 | 5.0 | 12.0 | 0.00 | 0.01 | 0.00 | 65 | 1010.3 |
| 20260904201508 | 88 | 331 | 3.0 | 10.0 | 0.00 | 0.01 | 0.00 | 66 | 1010.3 |
| 20260904200006 | 88 | 336 | 6.0 | 14.0 | 0.00 | 0.01 | 0.00 | 65 | 1010.6 |
| 20260904194502 | 87 | 335 | 5.0 | 11.0 | 0.00 | 0.01 | 0.00 | 67 | 1010.9 |
| 20260904193059 | 86 | 321 | 7.0 | 13.0 | 0.00 | 0.01 | 0.00 | 68 | 1011.3 |
| 20260904191553 | 85 | 311 | 8.0 | 15.0 | 0.00 | 0.01 | 0.00 | 69 | 1011.4 |
| 20260904190051 | 85 | 273 | 5.0 | 13.0 | 0.00 | 0.01 | 0.00 | 71 | 1011.8 |
| 20260904184545 | 83 | 294 | 5.0 | 13.0 | 0.00 | 0.01 | 0.00 | 73 | 1012.0 |
| 20260904183042 | 82 | 304 | 6.0 | 13.0 | 0.00 | 0.01 | 0.00 | 74 | 1012.3 |
| 20260904181536 | 81 | 305 | 7.0 | 12.0 | 0.00 | 0.01 | 0.00 | 77 | 1012.6 |
| 20260904180004 | 79 | 296 | 7.0 | 17.0 | 0.00 | 0.01 | 0.00 | 82 | 1012.6 |
| 20260904174600 | 77 | 274 | 8.0 | 14.0 | 0.00 | 0.01 | 0.00 | 87 | 1012.4 |
| 20260904173027 | 75 | 240 | 6.0 | 16.0 | 0.00 | 0.01 | 0.00 | 89 | 1012.7 |
| 20260904171525 | 74 | 256 | 6.0 | 14.0 | 0.00 | 0.01 | 0.00 | 89 | 1013.4 |
| 20260904170054 | 73 | 227 | 7.0 | 18.0 | 0.00 | 0.01 | 0.00 | 89 | 1014.1 |
| 20260904164550 | 74 | 314 | 2.0 | 11.0 | 0.00 | 0.01 | 0.00 | 88 | 1015.4 |
| 20260904163046 | 76 | 157 | 3.0 | 9.0 | 0.00 | 0.01 | 0.00 | 84 | 1015.5 |
| 20260904161547 | 76 | 180 | 7.0 | 13.0 | 0.00 | 0.01 | 0.00 | 84 | 1014.9 |
| 20260904160047 | 75 | 239 | 8.0 | 16.0 | 0.00 | 0.01 | 0.00 | 85 | 1014.8 |
| 20260904154541 | 76 | 113 | 5.0 | 21.0 | 0.00 | 0.01 | 0.00 | 85 | 1015.0 |
| 20260904153037 | 76 | 156 | 4.0 | 16.0 | 0.00 | 0.01 | 0.00 | 86 | 1015.1 |
| 20260904151538 | 76 | 182 | 9.0 | 18.0 | 0.00 | 0.01 | 0.00 | 86 | 1014.9 |
| 20260904150033 | 78 | 180 | 3.0 | 11.0 | 0.00 | 0.01 | 0.00 | 82 | 1014.9 |
| 20260904144531 | 78 | 285 | 4.0 | 11.0 | 0.00 | 0.01 | 0.00 | 82 | 1014.6 |
| 20260904143033 | 77 | 198 | 6.0 | 12.0 | 0.00 | 0.01 | 0.00 | 83 | 1013.5 |
| 20260904141522 | 77 | 186 | 1.0 | 9.0 | 0.00 | 0.01 | 0.00 | 86 | 1013.5 |
| 20260904140018 | 75 | 198 | 5.0 | 10.0 | 0.00 | 0.01 | 0.00 | 87 | 1013.6 |
| 20260904134517 | 75 | 206 | 3.0 | 12.0 | 0.00 | 0.01 | 0.00 | 87 | 1013.7 |
| 20260904133012 | 74 | 235 | 4.0 | 15.0 | 0.00 | 0.01 | 0.01 | 88 | 1013.4 |
| 20260904131508 | 74 | 189 | 3.0 | 10.0 | 0.00 | 0.01 | 0.01 | 88 | 1013.5 |
| 20260904130008 | 74 | 166 | 4.0 | 10.0 | 0.00 | 0.01 | 0.01 | 89 | 1013.2 |
| 20260904124507 | 73 | 221 | 2.0 | 12.0 | 0.00 | 0.01 | 0.01 | 90 | 1012.8 |
| 20260904123036 | 73 | 156 | 3.0 | 9.0 | 0.00 | 0.01 | 0.01 | 90 | 1012.5 |
| 20260904121542 | 73 | 170 | 6.0 | 14.0 | 0.00 | 0.01 | 0.01 | 90 | 1012.4 |
| 20260904120034 | 74 | 190 | 5.0 | 12.0 | 0.00 | 0.01 | 0.01 | 89 | 1011.8 |
| 20260904114531 | 74 | 176 | 1.0 | 9.0 | 0.00 | 0.01 | 0.01 | 89 | 1011.7 |
| 20260904113030 | 75 | 202 | 4.0 | 12.0 | 0.00 | 0.01 | 0.01 | 89 | 1011.4 |
| 20260904111529 | 75 | 150 | 1.0 | 4.0 | 0.00 | 0.01 | 0.01 | 89 | 1011.0 |
| 20260904110027 | 75 | 139 | 0.0 | 0.0 | 0.00 | 0.01 | 0.01 | 88 | 1010.7 |
| 20260904104527 | 75 | 140 | 0.0 | 2.0 | 0.00 | 0.01 | 0.01 | 89 | 1010.8 |
| 20260904103025 | 75 | 283 | 0.0 | 1.0 | 0.00 | 0.01 | 0.01 | 89 | 1010.8 |
| 20260904101525 | 75 | 283 | 0.0 | 0.0 | 0.00 | 0.01 | 0.01 | 90 | 1010.6 |
| 20260904100023 | 76 | 283 | 0.0 | 1.0 | 0.00 | 0.01 | 0.01 | 89 | 1010.7 |
| 20260904094534 | 76 | 283 | 0.0 | 2.0 | 0.00 | 0.01 | 0.01 | 89 | 1010.6 |
| 20260904093022 | 76 | 284 | 1.0 | 6.0 | 0.00 | 0.01 | 0.01 | 89 | 1010.4 |
| 20260904091521 | 75 | 315 | 1.0 | 3.0 | 0.00 | 0.01 | 0.01 | 89 | 1010.4 |
| 20260904084556 | 75 | 308 | 1.0 | 5.0 | 0.00 | 0.01 | 0.01 | 89 | 1010.3 |
| 20260904083121 | 75 | 310 | 3.0 | 5.0 | 0.00 | 0.01 | 0.01 | 89 | 1010.8 |
| 20260904081547 | 75 | 183 | 0.0 | 2.0 | 0.00 | 0.01 | 0.01 | 89 | 1011.4 |
| 20260904080046 | 74 | 183 | 0.0 | 3.0 | 0.00 | 0.01 | 0.01 | 89 | 1011.3 |
| 20260904074549 | 74 | 308 | 0.0 | 0.0 | 0.00 | 0.01 | 0.01 | 89 | 1011.0 |
| 20260904073015 | 74 | 308 | 0.0 | 2.0 | 0.00 | 0.01 | 0.01 | 89 | 1010.9 |
| 20260904071515 | 74 | 309 | 1.0 | 4.0 | 0.00 | 0.01 | 0.01 | 89 | 1010.6 |
| 20260904070109 | 74 | 315 | 0.0 | 2.0 | 0.00 | 0.01 | 0.01 | 89 | 1010.6 |
| 20260904064543 | 74 | 315 | 1.0 | 3.0 | 0.00 | 0.01 | 0.01 | 89 | 1010.6 |
| 20260904063045 | 74 | 314 | 1.0 | 5.0 | 0.00 | 0.01 | 0.01 | 89 | 1010.8 |
| 20260904061540 | 74 | 315 | 2.0 | 3.0 | 0.00 | 0.01 | 0.01 | 90 | 1011.1 |
| 20260904060040 | 74 | 224 | 0.0 | 0.0 | 0.00 | 0.01 | 0.01 | 90 | 1011.5 |
| 20260904054547 | 75 | 221 | 0.0 | 0.0 | 0.00 | 0.01 | 0.01 | 90 | 1011.9 |
| 20260904053051 | 74 | 214 | 0.0 | 0.0 | 0.00 | 0.01 | 0.01 | 90 | 1012.0 |
| 20260904051541 | 74 | 241 | 0.0 | 2.0 | 0.00 | 0.01 | 0.01 | 90 | 1011.9 |
| 20260904050039 | 74 | 246 | 1.0 | 3.0 | 0.00 | 0.01 | 0.01 | 89 | 1011.9 |
| 20260904044534 | 74 | 243 | 0.0 | 3.0 | 0.00 | 0.01 | 0.01 | 89 | 1011.9 |
| 20260904043038 | 75 | 189 | 0.0 | 2.0 | 0.00 | 0.01 | 0.01 | 89 | 1011.8 |
| 20260904041530 | 75 | 198 | 0.0 | 3.0 | 0.00 | 0.01 | 0.01 | 89 | 1011.9 |
| 20260904040029 | 75 | 216 | 2.0 | 4.0 | 0.00 | 0.01 | 0.01 | 89 | 1012.0 |
| 20260904034529 | 75 | 201 | 2.0 | 6.0 | 0.00 | 0.01 | 0.01 | 89 | 1012.1 |
| 20260904033029 | 75 | 152 | 1.0 | 3.0 | 0.00 | 0.01 | 0.01 | 88 | 1012.2 |
| 20260904031534 | 75 | 232 | 0.0 | 4.0 | 0.00 | 0.01 | 0.01 | 88 | 1012.2 |
| 20260904030026 | 75 | 210 | 1.0 | 4.0 | 0.00 | 0.01 | 0.01 | 88 | 1012.2 |
| 20260904024525 | 76 | 179 | 0.0 | 5.0 | 0.00 | 0.01 | 0.01 | 87 | 1012.3 |
| 20260904023024 | 76 | 192 | 2.0 | 5.0 | 0.00 | 0.02 | 0.01 | 87 | 1012.2 |
| 20260904021525 | 76 | 184 | 0.0 | 4.0 | 0.00 | 0.02 | 0.01 | 86 | 1012.0 |
| 20260904020021 | 76 | 171 | 0.0 | 3.0 | 0.00 | 0.02 | 0.01 | 85 | 1011.8 |
| 20260904014521 | 77 | 200 | 2.0 | 5.0 | 0.00 | 0.02 | 0.01 | 83 | 1011.9 |
| 20260904013021 | 78 | 185 | 0.0 | 3.0 | 0.00 | 0.02 | 0.01 | 81 | 1011.6 |
| 20260904011518 | 79 | 183 | 2.0 | 6.0 | 0.00 | 0.02 | 0.01 | 78 | 1011.2 |
| 20260904010017 | 80 | 191 | 2.0 | 4.0 | 0.00 | 0.02 | 0.01 | 75 | 1011.0 |